Weather History for Pompano Beach, FL

Change the Weather History Date:

Tuesday, April 8, 2014

  Actual Average Record
Temperature  
Mean Temperature 80 °F -  
Max Temperature 91 °F 83 °F 93 °F (1972)
Min Temperature 69 °F 64 °F 45 °F (1971)
Cooling Degree Days 14    
Growing Degree Days 30 (Base 50)    
Moisture  
Dew Point 70 °F    
Average Humidity 77    
Maximum Humidity 90    
Minimum Humidity 52    
Precipitation  
Precipitation 0.27 in - - ()
Sea Level Pressure  
Sea Level Pressure 29.86 in    
Wind  
Wind Speed 13 mph (SSW)    
Max Wind Speed 30 mph    
Max Gust Speed 39 mph    
Visibility 8 miles    
Events Rain    
Averages and records for this station are not official NWS values.
T = Trace of Precipitation, MM = Missing Value Source: NWS Daily Summary

Daily Weather History Graph

Daily Weather History Graph

Search for Another Location

Airport:

Trip Planner

Search our weather history database for the weather conditions in past years. The results will help you decide how hot, cold, wet, or windy it might be!

Date:

Astronomy

Apr. 08, 2014 Rise Set
Actual Time 7:04 AM EDT 7:40 PM EDT
Civil Twilight 6:40 AM EDT 8:04 PM EDT
Nautical Twilight 6:13 AM EDT 8:31 PM EDT
Astronomical Twilight 5:45 AM EDT 8:59 PM EDT
Moon 2:04 PM EDT (4/8) 2:42 AM EDT (4/8)
Length of Visible Light 13h 23m
Length of Day
12h 36m
Waxing Gibbous, 62% of the Moon is Illuminated
Apr 8
Waxing Gibbous
Apr 15
Full
Apr 22
Last Quarter
Apr 29
New
May 6
First Quarter

Hourly Weather History & Observations

Time (EDT) Temp. Heat Index Dew Point Humidity Pressure Visibility Wind Dir Wind Speed Gust Speed Precip Events Conditions
12:15 AM 79.0 °F - 75.9 °F 90% 29.94 in 7.0 mi SSE 8.1 mph - N/A   Overcast
12:53 AM 80.1 °F 85.1 °F 75.0 °F 85% 29.93 in 7.0 mi SSE 9.2 mph - N/A   Overcast
1:34 AM 80.1 °F 85.1 °F 75.0 °F 85% 29.91 in 7.0 mi South 13.8 mph - N/A   Mostly Cloudy
1:53 AM 79.0 °F - 75.0 °F 88% 29.91 in 8.0 mi South 11.5 mph 19.6 mph 0.00 in   Mostly Cloudy
2:11 AM 78.1 °F - 73.0 °F 84% 29.90 in 1.8 mi South 20.7 mph 26.5 mph 0.09 in Rain Heavy Rain
2:22 AM 75.0 °F - 71.1 °F 87% 29.90 in 3.0 mi South 13.8 mph 25.3 mph 0.16 in Rain Light Rain
2:48 AM 75.2 °F - 69.8 °F 83% 29.89 in 2.5 mi South 11.5 mph - 0.22 in Rain Rain
2:53 AM 75.0 °F - 71.1 °F 87% 29.89 in 4.0 mi South 13.8 mph - 0.22 in Rain Light Rain
3:53 AM 75.9 °F - 72.0 °F 87% 29.88 in 6.0 mi South 5.8 mph - 0.00 in   Scattered Clouds
4:05 AM 77.0 °F - 72.0 °F 84% 29.87 in 7.0 mi South 8.1 mph - N/A   Mostly Cloudy
4:12 AM 77.0 °F - 72.0 °F 84% 29.87 in 8.0 mi South 6.9 mph - N/A   Scattered Clouds
4:53 AM 78.1 °F - 73.9 °F 87% 29.86 in 7.0 mi South 9.2 mph - N/A   Clear
5:53 AM 78.1 °F - 73.9 °F 87% 29.85 in 7.0 mi South 6.9 mph - N/A   Clear
6:53 AM 78.1 °F - 73.9 °F 87% 29.86 in 7.0 mi South 8.1 mph - N/A   Clear
7:53 AM 78.1 °F - 73.0 °F 84% 29.87 in 7.0 mi South 10.4 mph - N/A   Clear
8:53 AM 80.1 °F 84.2 °F 73.0 °F 79% 29.88 in 9.0 mi South 13.8 mph 21.9 mph N/A   Clear
9:53 AM 82.0 °F 86.7 °F 72.0 °F 71% 29.88 in 10.0 mi SSW 11.5 mph - N/A   Overcast
10:53 AM 84.9 °F 90.1 °F 71.1 °F 63% 29.88 in 10.0 mi South 17.3 mph 24.2 mph N/A   Scattered Clouds
11:53 AM 87.1 °F 92.0 °F 70.0 °F 57% 29.86 in 10.0 mi SSW 16.1 mph 33.4 mph N/A   Mostly Cloudy
12:53 PM 90.0 °F 95.4 °F 70.0 °F 52% 29.84 in 10.0 mi SSW 18.4 mph 27.6 mph N/A   Partly Cloudy
1:53 PM 86.0 °F 93.8 °F 73.9 °F 67% 29.83 in 10.0 mi SSE 19.6 mph 25.3 mph N/A   Mostly Cloudy
2:53 PM 86.0 °F 93.8 °F 73.9 °F 67% 29.78 in 9.0 mi South 18.4 mph 25.3 mph 0.00 in   Scattered Clouds
3:53 PM 86.0 °F 90.1 °F 69.1 °F 57% 29.78 in 10.0 mi WSW 20.7 mph 31.1 mph N/A   Mostly Cloudy
4:53 PM 88.0 °F 92.9 °F 70.0 °F 55% 29.76 in 10.0 mi SW 29.9 mph 39.1 mph 0.02 in   Partly Cloudy
5:53 PM 79.0 °F - 69.1 °F 72% 29.79 in 10.0 mi WNW 25.3 mph 32.2 mph N/A   Scattered Clouds
6:13 PM 77.0 °F - 66.9 °F 71% 29.80 in 10.0 mi WNW 21.9 mph 29.9 mph 0.00 in   Mostly Cloudy
6:33 PM 75.0 °F - 64.9 °F 71% 29.80 in 10.0 mi WNW 23.0 mph 31.1 mph 0.00 in   Scattered Clouds
6:53 PM 73.9 °F - 64.0 °F 71% 29.82 in 10.0 mi WNW 19.6 mph 26.5 mph 0.00 in   Clear
7:53 PM 73.0 °F - 64.0 °F 73% 29.85 in 10.0 mi West 16.1 mph - N/A   Partly Cloudy
8:53 PM 72.0 °F - 62.1 °F 71% 29.87 in 10.0 mi West 13.8 mph - N/A   Mostly Cloudy
9:53 PM 69.1 °F - 63.0 °F 81% 29.90 in 10.0 mi West 15.0 mph - 0.03 in Rain Light Rain
10:53 PM 69.1 °F - 63.0 °F 81% 29.90 in 10.0 mi West 15.0 mph - 0.00 in   Overcast
11:53 PM 69.1 °F - 62.1 °F 78% 29.89 in 10.0 mi West 11.5 mph - 0.00 in   Mostly Cloudy